Location: Mountain Lakes
(44.1215°N, 71.9554°W)
Time: 03:18:47
(UTC+00:00)

Resurs 01 Rocket - Pass Details

Date: 08 September 2024
Orbit: 628 x 640 km, 97.8° (Epoch: 11 October)

Event Time Altitude Azimuth Distance (km) Brightness Sun altitude
Exits shadow 23:48:17 - 138° (SE) 2,491 4.1 -7.5°
Reaches altitude 10° 23:49:30 10° 132° (SE) 2,031 3.7 -7.8°
Maximum altitude 23:53:27 33° 69° (ENE) 1,083 2.4 -8.4°
Drops below altitude 10° 23:57:26 10° 6° (N) 2,041 4.4 -9.1°
Sets 23:59:48 0° 357° (N) 2,953 5.3 -9.5°
